Miscellaneous Local Product
Issued by NWS Hastings, NE

Home | Current Version | Previous Version | Graphics & Text | Print | Product List | Glossary On
Versions: 1 2 3 4 5 6 7 8 9 10 11 12 13 14 15 16 17 18 19 20 21 22 23 24 25 26 27 28 29 30 31 32 33 34 35 36 37 38 39 40 41 42 43 44 45 46 47 48 49 50
000
AXUS43 KGID 032102
MISGRI

GID CWA HOURLY WEATHER ROUNDUP
NATIONAL WEATHER SERVICE HASTINGS NE
400 PM CDT MON AUG 03 2015

NOTE: "FAIR" INDICATES FEW OR NO CLOUDS BELOW 12,000 FEET WITH NO
SIGNIFICANT WEATHER AND/OR OBSTRUCTIONS TO VISIBILITY.

...SOUTH CENTRAL NEBRASKA...

CITY           SKY/WX    TMP DP  RH WIND       PRES   REMARKS
GRAND ISLAND   PTSUNNY   82  67  60 E12       29.98F
HASTINGS       MOSUNNY   82  70  66 NE10      29.97F
KEARNEY        MOSUNNY   84  68  58 E13       29.98S
ORD            MOSUNNY   83  59  44 E7        29.97F
YORK           MOSUNNY   81  66  61 E9        29.98F
AURORA         MOSUNNY   81  69  67 E9        29.98S
LEXINGTON      PTSUNNY   85  69  58 S9        29.98S
HOLDREGE       PTSUNNY   84  67  56 E10       29.97F
HEBRON         MOSUNNY   88  71  56 E6        29.93F HX  93

...NEBRASKA PANHANDLE...

CITY           SKY/WX    TMP DP  RH WIND       PRES   REMARKS
CHADRON        PTSUNNY   89  61  38 E9        29.95F
ALLIANCE       PTSUNNY   87  61  41 S16       29.99F
SCOTTSBLUFF    CLOUDY    88  61  40 E15       29.98F
SIDNEY         PTSUNNY   90  49  24 S18       30.02F

...WESTERN AND NORTH CENTRAL NEBRASKA...

CITY           SKY/WX    TMP DP  RH WIND       PRES   REMARKS
VALENTINE      NOT AVBL
AINSWORTH      MOSUNNY   80  60  50 E8        30.01F
ONEILL         SUNNY     83  60  45 NE6       30.00F
BROKEN BOW     PTSUNNY   87  61  41 E12       29.98F
IMPERIAL       CLOUDY    86  63  45 E10       29.98F
NORTH PLATTE   PTSUNNY   83  69  62 SE16      29.97F
MCCOOK         CLOUDY    90  68  48 E13       29.95F HX  94

...EASTERN NEBRASKA...

CITY           SKY/WX    TMP DP  RH WIND       PRES   REMARKS
NORFOLK        MOSUNNY   82  58  43 VRB6      29.99F
SO SIOUX CITY  MOSUNNY   80  60  50 S5        29.97F
TEKAMAH        MOSUNNY   81  64  56 CALM      29.97F
COLUMBUS       SUNNY     82  61  47 NE6       29.98S
ALBION         SUNNY     80  57  45 E6        30.00S
OMAHA EPPLEY   PTSUNNY   82  61  48 NW5       29.97F
OFFUTT AFB     MOSUNNY   81  63  53 NE7       29.96F
MILLARD          N/A     82  65  56 E3        29.96F
LINCOLN        MOSUNNY   85  66  53 NE13      29.96F
NEBRASKA CITY  MOSUNNY   80  62  53 E7        29.96S
BEATRICE       MOSUNNY   82  69  66 E9        29.95S
FALLS CITY     MOSUNNY   82  73  74 SE7       29.92F

...NORTHERN KANSAS...

CITY           SKY/WX    TMP DP  RH WIND       PRES   REMARKS
GOODLAND       PTSUNNY   91  59  33 SE16      29.99F HX  90
HILL CITY      MOSUNNY   94  65  38 SE8       29.93F HX  96
NORTON         CLEAR     90  57  33 SE8       29.93F
PHILLIPSBURG   SUNNY     93  70  46 SE10G17   29.92F HX  99
SMITH CENTER   SUNNY     90  68  48 SE7       29.93F HX  93
HAYS           PTSUNNY   93  66  40 SE14      29.92F HX  96
RUSSELL        PTSUNNY   92  66  42 VRB7      29.91S HX  94
CONCORDIA      SUNNY     92  72  51 E8        29.91F HX  99
SALINA         MOSUNNY   95  66  38 SE10      29.90F HX  98
TOPEKA         SUNNY     93  71  48 S8        29.89F HX 100



USA.gov is the U.S. government's official web portal to all federal, state and local government web resources and services.